Flag for Switzerland Weather past 2 weeks in Bern, Bern, Switzerland

Now
30 °F

Partly cloudy.


Feels Like: 30 °F
Forecast: 19 / 37 °F
Wind: 2 mph from North

Location: Bern / Belp

Current Time: Jan 27, 2015 at 9:09:11 PM

Latest Report: Jan 27, 2015 at 8:20 PM


Visibility: 4 mi

Pressure: 30.24 "Hg

Humidity: 93%

Dew point: 28 °F

Location of BernLocation

Historic Weather in Bern — Graph

°F

Bern temperature yesterday

Maximum temperature yesterday: 30 °F (at 11:50 AM)
Minimum temperature yesterday: 23 °F (at 1:20 AM)
Average temperature yesterday: 28 °F

Past Weeks' High & Low Weather Summary

 TemperatureHumidityPressure
High52 °F (Jan 14, 12:50 AM)100% (Jan 12, 10:20 PM)30.39 "Hg (Jan 12, 10:20 PM)
Low21 °F (Jan 13, 7:20 AM)47% (Jan 13, 8:20 PM)29.65 "Hg (Jan 16, 3:50 PM)
Average33 °F87%30.00 "Hg
* Reported Jan 12 7:20 PM — Jan 27 7:50 PM, Bern, Weather by CustomWeather, © 2014

Note: Actual official high and low records may vary slightly from our data, if they occured in-between our weather recording intervals... More about our weather records

Advertising

Bern weather history for previous 24 hours

 ConditionsComfort  
Time TempWeatherWind HumidityBarometerVisibility
7:50 PM
Jan 27
30 °FPassing clouds.1 mph100%30.24 "HgN/A
7:20 PM30 °FPassing clouds.1 mph100%30.21 "Hg3 mi
6:50 PM30 °FPassing clouds.2 mph100%30.21 "HgN/A
6:20 PM30 °FPassing clouds.3 mph100%30.21 "HgN/A
5:50 PM32 °FPartly cloudy.2 mph87%30.21 "HgN/A
5:20 PM34 °FBroken clouds.2 mph81%30.21 "HgN/A
4:50 PM36 °FMore clouds than sun.2 mph75%30.21 "Hg6 mi
4:20 PM36 °FMore clouds than sun.6 mph75%30.21 "Hg6 mi
3:50 PM36 °FBroken clouds.5 mph81%30.21 "HgN/A
3:20 PM36 °FBroken clouds.5 mph87%30.21 "HgN/A
2:50 PM37 °FBroken clouds.1 mph81%30.18 "Hg6 mi
2:20 PM39 °FBroken clouds.1 mph81%30.18 "Hg6 mi
1:50 PM37 °FBroken clouds.No wind81%30.21 "Hg6 mi
1:20 PM36 °FOvercast.1 mph93%30.21 "Hg4 mi
12:50 PM37 °FBroken clouds.No wind87%30.21 "Hg4 mi
12:20 PM36 °FFog.No wind93%30.21 "Hg3 mi
11:50 AM36 °FFog.1 mph87%30.21 "Hg2 mi
11:20 AM34 °FFog.1 mph93%30.21 "Hg1 mi
10:50 AM32 °FIce fog.5 mph93%30.21 "Hg1 mi
10:20 AM32 °FPartly sunny.1 mph93%30.21 "Hg1 mi
9:50 AM30 °FIce fog.2 mph100%30.21 "Hg1 mi
9:20 AM30 °FIce fog.1 mph100%30.21 "Hg0 mi
8:50 AM28 °FIce fog.1 mph100%30.21 "Hg0 mi
8:20 AM32 °FMostly cloudy.1 mph93%30.21 "Hg1 mi
7:50 AM30 °FMostly cloudy.2 mph100%30.21 "Hg1 mi
7:20 AM30 °FIce fog.1 mph100%30.18 "Hg2 mi
6:50 AM32 °FIce fog.1 mph100%30.18 "Hg1 mi
6:20 AM32 °FIce fog.2 mph93%30.15 "Hg1 mi
5:50 AM32 °FSnow showers. Low clouds.1 mph93%30.15 "Hg1 mi
5:20 AM32 °FSnow. Mostly cloudy.3 mph93%30.15 "Hg1 mi
4:50 AM32 °FSnow showers. Dense fog.1 mph93%30.15 "Hg1 mi
4:20 AM30 °FSnow showers. Ice fog.2 mph100%30.15 "Hg1 mi
3:50 AM30 °FIce fog.1 mph100%30.15 "Hg1 mi
3:20 AM30 °FIce fog.1 mph100%30.15 "Hg1 mi
2:50 AM30 °FSnow. Ice fog.No wind100%30.18 "Hg1 mi
2:20 AM30 °FSnow. Ice fog.2 mph100%30.18 "Hg1 mi
1:50 AM30 °FSnow. Ice fog.1 mph100%30.18 "Hg1 mi
1:20 AM30 °FSnow. Ice fog.2 mph100%30.18 "Hg1 mi
12:50 AM30 °FSnow showers. Passing clouds.3 mph93%30.18 "Hg1 mi
12:20 AM30 °FSnow showers. Partly cloudy.2 mph93%30.18 "Hg1 mi
11:50 PM
Jan 26
30 °FDrizzle. Ice fog.2 mph100%30.18 "Hg2 mi
11:20 PM30 °FSnow. Ice fog.5 mph100%30.18 "Hg1 mi
10:50 PM30 °FSnow. Passing clouds.2 mph93%30.18 "Hg1 mi
10:20 PM30 °FSnow. Partly cloudy.1 mph93%30.18 "Hg1 mi
9:50 PM30 °FSnow. Partly cloudy.1 mph93%30.21 "Hg1 mi
9:20 PM30 °FSnow. Partly cloudy.2 mph93%30.18 "Hg1 mi
Weather by CustomWeather, © 2014

See weather overviewHow to use our weather pages